Time,TemperatureF,DewpointF,PressureIn,WindDirection,WindDirectionDegrees,WindSpeedMPH,WindSpeedGustMPH,Humidity,HourlyPrecipIn,Conditions,Clouds,dailyrainin,SoftwareType,DateUTC
2013-02-25 00:01:00,31.0,30.0,-100.00,North,355,2.0,9.0,99,-99.99,,,-99.99,,2013-02-25 05:01:00,
2013-02-25 00:11:00,31.0,30.0,-100.00,NNE,25,5.0,12.0,99,-99.99,,,-99.99,,2013-02-25 05:11:00,
2013-02-25 00:22:00,31.0,30.0,-100.00,NNE,25,5.0,12.0,99,-99.99,,,-99.99,,2013-02-25 05:22:00,
2013-02-25 00:32:00,30.0,30.0,-100.00,North,0,5.0,9.0,99,-99.99,,,-99.99,,2013-02-25 05:32:00,
2013-02-25 00:42:00,30.0,30.0,-100.00,North,0,5.0,9.0,99,-99.99,,,-99.99,,2013-02-25 05:42:00,
2013-02-25 00:52:00,30.0,30.0,-100.00,North,0,2.0,8.0,99,-99.99,,,-99.99,,2013-02-25 05:52:00,
2013-02-25 01:03:00,30.0,30.0,-100.00,North,0,2.0,8.0,99,-99.99,,,-99.99,,2013-02-25 06:03:00,
2013-02-25 01:12:00,30.0,30.0,-100.00,North,0,1.0,7.0,99,-99.99,,,-99.99,,2013-02-25 06:12:00,
2013-02-25 01:21:00,30.0,30.0,-100.00,North,0,1.0,7.0,99,-99.99,,,-99.99,,2013-02-25 06:21:00,
2013-02-25 01:32:00,30.0,30.0,-100.00,North,0,2.0,9.0,99,-99.99,,,-99.99,,2013-02-25 06:32:00,
2013-02-25 01:42:00,30.0,30.0,-100.00,North,0,2.0,7.0,99,-99.99,,,-99.99,,2013-02-25 06:42:00,
2013-02-25 01:51:00,30.0,30.0,-100.00,North,0,2.0,-999.0,99,-99.99,,,-99.99,,2013-02-25 06:51:00,
2013-02-25 02:01:00,30.0,29.0,-100.00,North,0,1.0,6.0,99,-99.99,,,-99.99,,2013-02-25 07:01:00,
2013-02-25 02:11:00,30.0,29.0,-100.00,North,0,0.0,5.0,99,-99.99,,,-99.99,,2013-02-25 07:11:00,
2013-02-25 02:21:00,30.0,30.0,-100.00,North,0,0.0,2.0,99,-99.99,,,-99.99,,2013-02-25 07:21:00,
2013-02-25 02:32:00,30.0,30.0,-100.00,North,0,0.0,2.0,99,-99.99,,,-99.99,,2013-02-25 07:32:00,
2013-02-25 02:42:00,30.0,30.0,-100.00,North,0,0.0,2.0,98,-99.99,,,-99.99,,2013-02-25 07:42:00,
2013-02-25 02:52:00,30.0,30.0,-100.00,North,0,0.0,5.0,99,-99.99,,,-99.99,,2013-02-25 07:52:00,
2013-02-25 03:01:00,30.0,30.0,-100.00,North,0,1.0,5.0,99,-99.99,,,-99.99,,2013-02-25 08:01:00,
2013-02-25 03:11:00,30.0,30.0,-100.00,North,0,1.0,3.0,99,-99.99,,,-99.99,,2013-02-25 08:11:00,
2013-02-25 03:22:00,30.0,30.0,-100.00,North,0,1.0,5.0,99,-99.99,,,-99.99,,2013-02-25 08:22:00,
2013-02-25 03:32:00,31.0,30.0,-100.00,North,0,1.0,8.0,99,-99.99,,,-99.99,,2013-02-25 08:32:00,
2013-02-25 03:42:00,31.0,30.0,-100.00,North,0,2.0,6.0,99,-99.99,,,-99.99,,2013-02-25 08:42:00,
2013-02-25 03:52:00,30.0,30.0,-100.00,ENE,70,2.0,7.0,99,-99.99,,,-99.99,,2013-02-25 08:52:00,
2013-02-25 04:02:00,30.0,30.0,-100.00,North,0,5.0,7.0,99,-99.99,,,-99.99,,2013-02-25 09:02:00,
2013-02-25 04:12:00,30.0,30.0,-100.00,North,0,5.0,9.0,99,-99.99,,,-99.99,,2013-02-25 09:12:00,
2013-02-25 04:20:00,30.0,30.0,-100.00,ESE,105,5.0,7.0,99,-99.99,,,-99.99,,2013-02-25 09:20:00,
2013-02-25 04:21:00,30.0,30.0,-100.00,NNE,15,5.0,7.0,99,-99.99,,,-99.99,,2013-02-25 09:21:00,
2013-02-25 04:32:00,30.0,30.0,-100.00,NE,55,5.0,9.0,99,-99.99,,,-99.99,,2013-02-25 09:32:00,
2013-02-25 04:42:00,30.0,30.0,-100.00,WSW,245,5.0,8.0,99,-99.99,,,-99.99,,2013-02-25 09:42:00,
2013-02-25 04:52:00,30.0,29.0,-100.00,NNE,20,2.0,8.0,98,-99.99,,,-99.99,,2013-02-25 09:52:00,
2013-02-25 05:01:00,30.0,30.0,-100.00,ESE,105,5.0,7.0,99,-99.99,,,-99.99,,2013-02-25 10:01:00,
2013-02-25 05:11:00,30.0,30.0,-100.00,ESE,105,5.0,7.0,99,-99.99,,,-99.99,,2013-02-25 10:11:00,
2013-02-25 05:32:00,30.0,30.0,-100.00,NE,50,6.0,8.0,99,-99.99,,,-99.99,,2013-02-25 10:32:00,
2013-02-25 05:42:00,30.0,29.0,-100.00,NE,45,2.0,8.0,99,-99.99,,,-99.99,,2013-02-25 10:42:00,
2013-02-25 05:52:00,30.0,29.0,-100.00,NE,45,2.0,8.0,99,-99.99,,,-99.99,,2013-02-25 10:52:00,
2013-02-25 06:01:00,29.0,29.0,-100.00,NE,55,1.0,3.0,99,-99.99,,,-99.99,,2013-02-25 11:01:00,
2013-02-25 06:11:00,29.0,28.0,-100.00,East,90,2.0,7.0,99,-99.99,,,-99.99,,2013-02-25 11:11:00,
2013-02-25 06:22:00,28.0,28.0,-100.00,ENE,70,2.0,8.0,99,-99.99,,,-99.99,,2013-02-25 11:22:00,
2013-02-25 06:32:00,28.0,28.0,-100.00,ENE,65,2.0,7.0,99,-99.99,,,-99.99,,2013-02-25 11:32:00,
2013-02-25 06:42:00,28.0,27.0,-100.00,NE,45,3.0,8.0,98,-99.99,,,-99.99,,2013-02-25 11:42:00,
2013-02-25 06:52:00,28.0,28.0,-100.00,NE,50,3.0,9.0,99,-99.99,,,-99.99,,2013-02-25 11:52:00,
2013-02-25 07:02:00,28.0,28.0,-100.00,NE,45,5.0,9.0,99,-99.99,,,-99.99,,2013-02-25 12:02:00,
2013-02-25 07:11:00,28.0,28.0,-100.00,North,355,2.0,6.0,99,-99.99,,,-99.99,,2013-02-25 12:11:00,
2013-02-25 07:22:00,28.0,28.0,-100.00,NW,315,5.0,8.0,98,-99.99,,,-99.99,,2013-02-25 12:22:00,
2013-02-25 07:32:00,27.0,27.0,-100.00,NW,305,8.0,10.0,98,-99.99,,,-99.99,,2013-02-25 12:32:00,
2013-02-25 07:42:00,28.0,28.0,-100.00,NE,45,5.0,10.0,99,-99.99,,,-99.99,,2013-02-25 12:42:00,
2013-02-25 07:54:00,28.0,28.0,-100.00,NNE,30,3.0,8.0,99,-99.99,,,-99.99,,2013-02-25 12:54:00,
2013-02-25 08:02:00,28.0,28.0,-100.00,North,0,5.0,8.0,99,-99.99,,,-99.99,,2013-02-25 13:02:00,
2013-02-25 08:12:00,28.0,28.0,-100.00,North,0,5.0,8.0,99,-99.99,,,-99.99,,2013-02-25 13:12:00,
2013-02-25 08:23:00,29.0,29.0,-100.00,West,265,2.0,7.0,99,-99.99,,,-99.99,,2013-02-25 13:23:00,
2013-02-25 08:32:00,29.0,29.0,-100.00,WNW,300,6.0,9.0,99,-99.99,,,-99.99,,2013-02-25 13:32:00,
2013-02-25 08:42:00,29.0,29.0,-100.00,NNE,25,2.0,8.0,99,-99.99,,,-99.99,,2013-02-25 13:42:00,
2013-02-25 08:52:00,30.0,30.0,-100.00,North,0,2.0,7.0,99,-99.99,,,-99.99,,2013-02-25 13:52:00,
2013-02-25 09:18:00,31.0,30.0,-100.00,North,355,1.0,3.0,98,-99.99,,,-99.99,,2013-02-25 14:18:00,
2013-02-25 19:02:00,35.0,31.0,-100.00,WNW,290,2.0,5.0,84,-99.99,,,-99.99,,2013-02-26 00:02:00,
2013-02-25 20:32:00,35.0,31.0,-100.00,WNW,290,3.0,5.0,85,-99.99,,,-99.99,,2013-02-26 01:32:00,